www.pogodaiklimat.ru

АРХИВ ПОГОДЫ в Краснодаре

Время (UTC), дата Ветер
(напр.,м/с)
 
Видим.   Явления Облачность Т
(С)
Тd
(С)
f
(%)
Тe
(С)
Тes
(С)
Комфортность P
(гПа)
Po
(гПа)
Тmin
(С)
Tmax
(С)
R
(мм)
S
(см)
00 24.08 Ю 1 10 км 6/0
[Ac trans Cc]
+17.2 +13.6 79 +18 +18 по сезону 1016.3 1012.8
03 24.08 штиль 0 10 км 3/0
[Ac trans Cc]
+16.5 +13.6 83 +16 +16 холодно 1015.9 1012.3 +16.5
06 24.08 В 1 10 км 1/0
[Ci fib]
+24.2 +13.0 50 +26 +34 жарко 1014.7 1011.2
09 24.08 СВ 2 10 км 3/0
[Ci fib]
+28.2 +9.3 31 +28 +42 жарко 1013.1 1009.6
12 24.08 СВ 2 10 км 3/0
[Ci fib]
+31.3 +11.7 30 +32 +41 жарко 1011.3 1008.0
15 24.08 В 1 10 км 1/0
[Ac trans]
+31.1 +11.8 31 +32 +33 жарко 1010.1 1006.7 +31.9
18 24.08 штиль 0 10 км 1/0
[Ac trans]
+26.1 +15.4 52 +29 +29 жарко 1009.9 1006.5
21 24.08 штиль 0 10 км 1/0
[Ac trans]
+24.9 +12.3 45 +27 +27 жарко 1010.2 1006.7
00 25.08 З 2 10 км ясно +21.6 +16.6 73 +25 +25 комфорт 1010.7 1007.2
03 25.08 ЮЗ 1 10 км 1/0
[Ac trans]
+21.1 +16.8 76 +25 +25 комфорт 1012.0 1008.5 +20.8
06 25.08 С 2 10 км ясно +25.2 +16.3 58 +29 +36 душно 1012.9 1009.5
09 25.08 СЗ 2 10 км ясно +31.0 +14.8 37 +33 +48 душно 1012.8 1009.5
12 25.08 СЗ 2 10 км ясно +34.0 +12.6 27 +34 +44 очень
жарко
1012.2 1008.9
15 25.08 СЗ 2 10 км 6/6 1000 м
[Sc diur, vesp]
+32.1 +10.0 26 +32 +32 жарко 1012.3 1008.9 +34.5
18 25.08 СЗ 2 10 км 3/0
[Ac trans]
+26.7 +14.0 46 +29 +29 жарко 1014.0 1010.6
21 25.08 З 1 10 км ясно +23.7 +17.0 66 +27 +27 жарко 1014.6 1011.1
00 26.08 ЮЗ 1 10 км 3/0
[Ac cast]
+22.1 +18.6 81 +27 +27 душно 1014.8 1011.3
03 26.08 ЮЗ 1 10 км 6/0
[Ac trans]
+21.2 +18.4 84 +25 +25 комфорт 1015.2 1011.7 +20.8
06 26.08 СЗ 2 10 км 3/0
[Ac trans Cc]
+25.2 +18.0 64 +30 +35 душно 1016.0 1012.6
09 26.08 СЗ 2 10 км 3/1 1000 м
[Cu hum Ac trans]
+30.3 +13.4 36 +32 +43 жарко 1015.7 1012.3
12 26.08 С 1 10 км 1/0
[Ac trans]
+32.4 +12.1 29 +33 +43 жарко 1014.4 1011.1
15 26.08 СЗ 1 10 км 3/0
[Ac trans]
+30.4 +10.7 30 +31 +31 жарко 1013.8 1010.4 +32.6
18 26.08 СЗ 1 10 км 8/1 1000 м
[Cu hum Ac trans Ci fib]
+24.6 +9.4 38 +25 +25 комфорт 1014.4 1010.9
21 26.08 штиль 0 10 км 6/1 1000 м
[Cu hum Ac trans Ci fib]
+22.1 +7.3 38 +23 +23 комфорт 1013.9 1010.4
00 27.08 З 1 10 км 6/0
[Ac trans Ci fib]
+20.5 +9.3 49 +23 +23 комфорт 1012.8 1009.3
03 27.08 штиль 0 10 км 8/5 1000 м
[Sc diur, vesp Ac trans Cc]
+19.0 +10.5 58 +20 +20 по сезону 1012.3 1008.8 +18.8
06 27.08 ЮЗ 1 10 км 3/0
[Ci fib]
+25.0 +8.4 35 +25 +33 комфорт 1012.3 1008.8
09 27.08 штиль 0 10 км 1/0
[Ac trans]
+31.6 +13.0 32 +32 +51 опасность
солнечного
удара
1010.9 1007.5
12 27.08 З 1 10 км 3/0
[Ac trans]
+33.9 +14.9 32 +36 +45 душно 1009.1 1005.8
15 27.08 СЗ 1 10 км 1/0
[Ac trans]
+32.9 +15.3 35 +35 +36 душно 1007.8 1004.5 +34.5
18 27.08 СЗ 1 10 км 6/0
[Ac trans Ci fib]
+27.9 +12.4 38 +29 +29 жарко 1008.3 1004.9
21 27.08 З 1 10 км 5/0
[Ac trans]
+24.5 +11.2 43 +26 +26 жарко 1008.1 1004.6
00 28.08 З 1 10 км 4/0
[Ci fib]
+21.8 +12.8 57 +24 +24 комфорт 1007.9 1004.4
03 28.08 ЮЗ 1 10 км 6/0
[Ac trans Ci fib]
+20.1 +14.7 71 +24 +24 комфорт 1008.3 1004.8 +20.1
06 28.08 С 1 10 км ясно +27.3 +11.5 37 +28 +36 жарко 1008.4 1004.9
09 28.08 ЮЗ 2 10 км ясно +31.4 +11.7 30 +32 +46 жарко 1007.7 1004.3
12 28.08 З 2 10 км 3/1 1000 м
[Cu hum Ac cast]
+33.4 +14.4 32 +35 +42 душно 1007.1 1003.8
15 28.08 З 3 10 км 3/0
[Ac cast]
+31.2 +9.9 27 +31 +31 жарко 1007.8 1004.4 +33.9
18 28.08 З 3
{10}
10 км ясно +26.1 +16.9 57 +30 +30 душно 1010.1 1006.7
21 28.08 ЮЗ 2 10 км 4/0
[Ac trans]
+23.6 +18.4 73 +28 +28 душно 1012.3 1008.8
00 29.08 З 2 10 км ясно +20.9 +15.8 73 +25 +25 комфорт 1014.3 1010.8
03 29.08 СЗ 2 10 км 3/0
[Ac cast]
+18.0 +13.6 75 +19 +19 по сезону 1015.8 1012.3 +18.0
06 29.08 С 1 10 км 3/0
[Ac trans]
+21.3 +9.8 48 +23 +29 комфорт 1017.0 1013.5 +17.9
09 29.08 СЗ 2 10 км 1/0
[Ci fib]
+24.5 +7.8 34 +25 +39 комфорт 1016.6 1013.2
12 29.08 С 1 10 км ясно +27.2 +7.4 29 +27 +38 жарко 1015.8 1012.3
15 29.08 СЗ 3 10 км ясно +25.4 +7.0 31 +25 +26 комфорт 1015.7 1012.3 +27.9
18 29.08 СЗ 3 10 км ясно +20.0 +9.9 52 +22 +22 комфорт 1017.9 1014.4
21 29.08 СЗ 1 10 км ясно +18.0 +11.5 66 +19 +19 по сезону 1018.7 1015.1
00 30.08 Ю 1 10 км ясно +15.3 +11.9 80 +16 +16 по сезону 1019.6 1016.0
03 30.08 штиль 0 10 км ясно +14.1 +11.4 84 +14 +14 холодно 1020.4 1016.8 +14.0
06 30.08 В 3 10 км ясно +21.7 +9.3 45 +23 +28 комфорт 1020.8 1017.3
09 30.08 С 2 10 км ясно +26.9 +5.5 25 +26 +40 жарко 1020.1 1016.6
12 30.08 С 1 10 км ясно +28.8 +4.2 21 +27 +38 жарко 1018.5 1015.1
15 30.08 С 1 10 км ясно +27.1 +2.0 20 +25 +26 комфорт 1017.9 1014.4 +28.9
18 30.08 С 1 10 км 6/6 1000 м
[Sc diur, vesp]
+21.9 +5.7 35 +22 +22 комфорт 1018.4 1014.9
21 30.08 С 2 10 км 6/6 1000 м
[Sc diur, vesp]
+19.5 +4.1 36 +21 +21 комфорт 1018.8 1015.2

 

Обсудить погоду в Краснодаре на МЕТЕОФОРУМЕ

 

Местоположение метеостанции Краснодар (Краснодарский край, Россия): широта 45.03 долгота 39.15 высота над уровнем моря 34 м.

В архиве по умолчанию представлена погода в Краснодаре за последнюю неделю. Архивные данные за месяц целиком и за предыдущие месяцы, начиная с января 2011 года, Вы можете получить, выбрав интересующий диапазон дат из раскрывающегося списка и нажав кнопку "Ввод!".

Внимание! Время в таблицах - всемирное. Для получения местного времени необходимо прибавить поправку, которая в Краснодаре равна 4 ч.

Ветер - указаны скорость ветра в м/с - средняя за 10 мин, порывы в срок и между сроками (в фигурных скобках) и направление, откуда дует ветер: С - северный, СВ - северо-восточный, В - восточный, ЮВ - юго-восточный, Ю - южный, ЮЗ - юго-западный, З - западный, СЗ - северо-западный.
Видимость - горизонтальная дальность видимости в метрах или километрах. При видимости от 1 до 10 км при отсутствии осадков обычно наблюдается дымка, при ухудшении видимости до 1 км и менее - туман. В сухую погоду видимость может ухудшаться дымом, пылью или мглою.
Явления - указаны атсосферные явления, наблюдавшиеся в срок или в последний час перед сроком; фигурными скобками обозначены явления, наблюдавшиеся между сроками (за 1-3 часа до срока); квадратными скобками обозначены град или гололедные отложения с указанием их диаметра в мм.
Облачность - указаны через наклонную черту общая и нижняя облачность в баллах и высота нижней границы облаков в метрах; квадратными скобками обозначены формы облаков: Ci - перистые, Cs - перисто-слоистые, Cc - перисто-кучевые, Ac - высококучевые, As - высокослоистые, Sc - слоисто-кучевые, Ns - слоисто-дождевые, Cu - кучевые, Cb - кучево-дождевые. Подробнее классификацию облаков см. в Атласе облаков (PDF).
T - Температура воздуха - температура, измеренная на высоте 2 м над землей.
Td - Температура точки росы - температура, при понижении до которой содержащийся в воздухе водяной пар достигнет насыщения.
f - Относительная влажность воздуха - влажноcть воздуха, измеренная на высоте 2 м над землей.
Te - Эффективная температура - температура, которую ощущает одетый по сезону человек в тени. Характеристика душности погоды. При расчете учитывается влияние влажности воздуха и скорости ветра на теплоощущения человека.
Tes - Эффективная температура на солнце - температура, которую ощущает человек, с поправкой на солнечный нагрев. Характеристика знойности погоды. Зависит от высоты солнца над горизонтом, облачности и скорости ветра. Ночью, в пасмурную погоду, а также при ветре 12 м/с и более поправка равна нулю.
P - Атмосферное давление - приведенное к уровню моря атмосферное давление.
Po - Атмосферное давление - измеренное на уровне метеостанции атмосферное давление.
Tmin - Минимальная температура - минимум температуры воздуха на высоте 2 м над землей.
Tmax - Максимальная температура - максимум температуры воздуха на высоте 2 м над землей.
R - Количество осадков - Количество выпавших осадков, мм.
S - Снежный покров - Высота снежного покрова, см.